FW0887 Weather Reports


time (UTC)temp
C
wind
direction
speed
KPH
gust
KPH
rain 1hr
cm
rain 24hr
cm
rain mn
cm
humidity
%
barometer
mb
20260503013036 6 236 0.0 3.2 0.00 0.00 0.00 76 1016.9
20260503011545 6 236 0.0 1.6 0.00 0.00 0.00 76 1017.0
20260503011539 7 0.0 0.0 0.00 0.00 0.00 76 1017.9
20260503010034 7 236 0.0 0.0 0.00 0.00 0.00 76 1017.1
20260503004530 7 234 0.0 0.0 0.00 0.00 0.00 75 1017.2
20260503003029 7 234 0.0 0.0 0.00 0.00 0.00 75 1017.1
20260503001527 7 235 0.0 1.6 0.00 0.00 0.00 74 1017.2
20260503001416 8 225 1.6 1.6 0.00 0.00 0.00 74 1018.1
20260503000026 7 234 0.0 1.6 0.00 0.00 0.00 74 1017.2
20260502234523 8 236 0.0 1.6 0.00 0.00 0.00 73 1017.3
20260502233020 8 236 0.0 3.2 0.00 0.00 0.00 72 1017.3
20260502231521 8 236 0.0 0.0 0.00 0.00 0.00 70 1017.4
20260502231414 9 0.0 0.0 0.00 0.00 0.00 69 1018.3
20260502230016 9 236 0.0 0.0 0.00 0.00 0.00 70 1017.4
20260502224513 9 237 0.0 0.0 0.00 0.00 0.00 69 1017.5
20260502223012 10 236 0.0 0.0 0.00 0.00 0.00 68 1017.5
20260502221516 11 0.0 0.0 0.00 0.00 0.00 65 1018.3
20260502221509 10 236 0.0 0.0 0.00 0.00 0.00 66 1017.6
20260502220005 10 236 0.0 0.0 0.00 0.00 0.00 64 1017.5
20260502214505 11 236 0.0 0.0 0.00 0.00 0.00 63 1017.5
20260502213005 11 236 0.0 0.0 0.00 0.00 0.00 61 1017.5
20260502211505 11 236 0.0 0.0 0.00 0.00 0.00 59 1017.6
20260502211406 12 0.0 0.0 0.00 0.00 0.00 59 1018.4
20260502210006 12 236 0.0 0.0 0.00 0.00 0.00 58 1017.5
20260502204503 12 234 0.0 0.0 0.00 0.00 0.00 57 1017.6
20260502203009 13 234 0.0 0.0 0.00 0.00 0.00 56 1017.7
20260502201504 13 232 0.0 0.0 0.00 0.00 0.00 55 1017.7
20260502201348 14 0.0 0.0 0.00 0.00 0.00 53 1018.5
20260502200002 14 228 0.0 0.0 0.00 0.00 0.00 53 1017.7
20260502194501 15 230 0.0 0.0 0.00 0.00 0.00 52 1017.8
20260502193002 16 227 0.0 0.0 0.00 0.00 0.00 49 1017.7
20260502191506 16 225 0.0 0.0 0.00 0.00 0.00 46 1017.7
20260502191129 17 0.0 0.0 0.00 0.00 0.00 45 1018.1
20260502190103 17 225 0.0 0.0 0.00 0.00 0.00 45 1017.5
20260502184600 18 228 0.0 0.0 0.00 0.00 0.00 44 1017.5
20260502183059 20 234 0.0 0.0 0.00 0.00 0.00 41 1017.5
20260502181601 21 228 0.0 3.2 0.00 0.00 0.00 37 1017.4
20260502181328 21 225 1.6 1.6 0.00 0.00 0.00 34 1017.7
20260502163100 23 238 3.2 8.0 0.00 0.00 0.00 35 1017.8
20260502161556 24 232 1.6 8.0 0.00 0.00 0.00 32 1017.9
20260502161249 25 225 3.2 4.8 0.00 0.00 0.00 33 1018.7
20260502151549 26 236 4.8 8.0 0.00 0.00 0.00 30 1018.5
20260502151446 26 225 6.4 9.7 0.00 0.00 0.00 29 1019.5
20260502123024 24 192 3.2 9.7 0.00 0.00 0.00 32 1020.9
20260502121514 24 180 4.8 16.1 0.00 0.00 0.00 32 1021.0
20260502121231 24 225 6.4 11.3 0.00 0.00 0.00 33 1021.9
20260502114509 23 199 4.8 16.1 0.00 0.00 0.00 33 1021.4
20260502113006 23 237 4.8 9.7 0.00 0.00 0.00 30 1021.7
20260502111503 23 210 1.6 12.9 0.00 0.00 0.00 38 1022.0
20260502111245 23 225 8.0 12.9 0.00 0.00 0.00 41 1023.0
20260502110001 23 254 4.8 14.5 0.00 0.00 0.00 42 1022.2
20260502104558 22 214 4.8 9.7 0.00 0.00 0.00 42 1022.4
20260502103055 22 117 1.6 9.7 0.00 0.00 0.00 41 1022.7
20260502101553 22 232 3.2 8.0 0.00 0.00 0.00 43 1022.8
20260502101256 22 225 4.8 9.7 0.00 0.00 0.00 43 1023.8
20260502091226 20 248 6.4 9.7 0.00 0.00 0.00 46 1024.2
20260502071513 14 107 0.0 3.2 0.00 0.00 0.00 62 1024.5
20260502071150 14 0.0 1.6 0.00 0.00 0.00 64 1025.3
20260502070010 13 107 0.0 1.6 0.00 0.00 0.00 63 1024.6
20260502064515 12 107 1.6 3.2 0.00 0.00 0.00 65 1024.6
20260502063005 11 107 0.0 1.6 0.00 0.00 0.00 71 1024.8
20260502061557 8 106 0.0 3.2 0.00 0.00 0.00 77 1024.8
20260502061139 7 0.0 0.0 0.00 0.00 0.00 85 1025.3
20260502060059 7 103 0.0 0.0 0.00 0.00 0.00 85 1024.9
20260502054606 4 108 0.0 0.0 0.00 0.00 0.00 87 1024.9
20260502053102 3 108 0.0 0.0 0.00 0.00 0.00 85 1025.0
20260502051554 3 108 0.0 0.0 0.00 0.00 0.00 85 1024.8
20260502050907 3 0.0 0.0 0.00 0.00 0.00 85 1024.9
20260502050052 3 108 0.0 0.0 0.00 0.00 0.00 85 1024.9
20260502044552 3 108 0.0 0.0 0.00 0.00 0.00 84 1024.9
20260502043054 3 108 0.0 0.0 0.00 0.00 0.00 84 1025.0
20260502041555 3 108 0.0 0.0 0.00 0.00 0.00 84 1024.9
20260502041207 3 0.0 0.0 0.00 0.00 0.00 84 1025.1
20260502040048 3 108 0.0 0.0 0.00 0.00 0.00 84 1025.0
20260502034550 3 108 0.0 0.0 0.00 0.00 0.00 84 1024.8
20260502033046 3 108 0.0 0.0 0.00 0.00 0.00 83 1024.9
20260502031544 3 108 0.0 0.0 0.00 0.00 0.00 82 1025.0
20260502031136 4 0.0 0.0 0.00 0.00 0.00 83 1025.3
20260502030048 3 108 0.0 0.0 0.00 0.00 0.00 83 1025.1
20260502024541 4 108 0.0 0.0 0.00 0.00 0.00 83 1025.2
20260502023041 4 108 0.0 0.0 0.00 0.00 0.00 83 1025.3
20260502021538 4 108 0.0 0.0 0.00 0.00 0.00 82 1025.2
20260502021107 5 0.0 0.0 0.00 0.00 0.00 81 1025.6
20260502020039 4 108 0.0 0.0 0.00 0.00 0.00 81 1025.4
20260502014533 5 108 0.0 0.0 0.00 0.00 0.00 81 1025.4